Weather History for Ephrata, WA

Change the Weather History Date:

Monday, October 24, 2011

  Actual Average Record
Temperature  
Mean Temperature 50 °F 47 °F  
Max Temperature 59 °F 58 °F 69 °F (1988)
Min Temperature 40 °F 36 °F 22 °F (2002)
Degree Days  
Heating Degree Days 15 18  
Month to date heating degree days 256 312  
Since 1 July heating degree days 311 439  
Cooling Degree Days 0 0  
Month to date cooling degree days 0 0  
Year to date cooling degree days 621 769  
Growing Degree Days 1 (Base 50)    
Moisture  
Dew Point 25 °F    
Average Humidity 41    
Maximum Humidity 58    
Minimum Humidity 23    
Precipitation  
Precipitation 0.00 in 0.02 in 0.26 in (2010)
Month to date precipitation 0.40 0.36  
Year to date precipitation 4.55 5.38  
Sea Level Pressure  
Sea Level Pressure 30.13 in    
Wind  
Wind Speed 10 mph (NW)    
Max Wind Speed 20 mph    
Max Gust Speed 24 mph    
Visibility 10 miles    
Events      
T = Trace of Precipitation, MM = Missing Value Source: NWS Daily Summary

Daily Weather History Graph

Daily Weather History Graph

Search for Another Location

Airport:

Trip Planner

Search our weather history database for the weather conditions in past years. The results will help you decide how hot, cold, wet, or windy it might be!

Date:

Astronomy

Oct. 24, 2011 Rise Set
Actual Time 7:29 AM PDT 5:54 PM PDT
Civil Twilight 6:57 AM PDT 6:25 PM PDT
Nautical Twilight 6:22 AM PDT 7:01 PM PDT
Astronomical Twilight 5:46 AM PDT 7:36 PM PDT
Moon 4:46 AM PDT (10/24) 4:27 PM PDT (10/24)
Length of Visible Light 11h 27m
Length of Day
10h 25m
Waning Crescent, 6% of the Moon is Illuminated
Oct 24
Waning Crescent
Oct 26
New
Nov 2
First Quarter
Nov 10
Full
Nov 18
Last Quarter

Hourly Weather History & Observations

Time (PDT) Temp. Windchill Dew Point Humidity Pressure Visibility Wind Dir Wind Speed Gust Speed Precip Events Conditions
12:53 AM 48.9 °F - 26.1 °F 41% 29.99 in 10.0 mi WNW 13.8 mph - N/A   Partly Cloudy
1:53 AM 46.9 °F - 28.0 °F 48% 29.99 in 10.0 mi NW 18.4 mph - N/A   Partly Cloudy
2:53 AM 43.0 °F 39.5 °F 28.0 °F 56% 30.02 in 10.0 mi East 5.8 mph - N/A   Clear
3:53 AM 44.1 °F 39.0 °F 30.0 °F 58% 30.02 in 10.0 mi West 9.2 mph - N/A   Clear
4:53 AM 46.9 °F - 30.9 °F 54% 30.03 in 10.0 mi WNW 12.7 mph - N/A   Clear
5:53 AM 44.1 °F 40.1 °F 30.0 °F 58% 30.07 in 10.0 mi NNW 6.9 mph - N/A   Clear
6:53 AM 45.0 °F 41.8 °F 28.0 °F 52% 30.08 in 10.0 mi North 5.8 mph - N/A   Clear
8:53 AM 48.9 °F - 26.1 °F 41% 30.13 in 10.0 mi Variable 4.6 mph - N/A   Clear
9:50 AM 53.6 °F - 24.8 °F 33% 30.12 in 10.0 mi NW 15.0 mph 24.2 mph N/A   Clear
9:53 AM 53.1 °F - 23.0 °F 31% 30.14 in 10.0 mi NW 17.3 mph 24.2 mph N/A   Clear
10:53 AM 55.9 °F - 23.0 °F 28% 30.14 in 10.0 mi NW 12.7 mph - N/A   Clear
11:53 AM 57.9 °F - 23.0 °F 26% 30.16 in 10.0 mi North 13.8 mph - N/A   Clear
12:53 PM 57.9 °F - 21.9 °F 25% 30.15 in 10.0 mi WNW 12.7 mph 16.1 mph N/A   Clear
1:53 PM 57.9 °F - 21.0 °F 24% 30.15 in 10.0 mi Variable 3.5 mph - N/A   Clear
2:53 PM 57.0 °F - 21.0 °F 25% 30.16 in 10.0 mi Calm Calm - N/A   Clear
3:53 PM 59.0 °F - 21.0 °F 23% 30.16 in 10.0 mi NNW 9.2 mph - N/A   Clear
4:53 PM 57.9 °F - 21.9 °F 25% 30.17 in 10.0 mi NNW 5.8 mph - N/A   Mostly Cloudy
5:53 PM 54.0 °F - 24.1 °F 31% 30.19 in 10.0 mi NW 10.4 mph - N/A   Clear
7:53 PM 48.0 °F - 24.1 °F 39% 30.22 in 10.0 mi WNW 12.7 mph - N/A   Clear
9:53 PM 46.0 °F 39.9 °F 25.0 °F 44% 30.25 in 10.0 mi WNW 13.8 mph - N/A   Clear
10:53 PM 46.9 °F - 26.1 °F 44% 30.26 in 10.0 mi NW 11.5 mph - N/A   Clear
11:53 PM 45.0 °F 40.1 °F 26.1 °F 48% 30.27 in 10.0 mi WNW 9.2 mph - N/A   Clear